BEIDOU-3 M24

Last updated on Nov. 24, 2019, 4:21 a.m. UTC

1 44543U 19061B   19327.71914711 -.00000048  00000-0  10000-3 0  9997
2 44543  54.9881 263.9869 0006650 303.8683 301.4482  1.86231781  1143
UTC
Height (km)
Latitude
Longitude
Inclination
Orbital Period
UTC large
Height (km)
Speed (km/s)
/
Latitude / Longitude
Inclination (degrees)
Orbital Period (minutes)
Azimuth
Elevation
Range (km)
Doppler Factor
iOS Compass Heading
iOS Angle

Next 30 passes for location: Hong Kong

Rise time Rise Azimuth (degrees) Set time Set Azimuth (degrees) Duration Max altitude (degrees)

No matching passes for this satellites